Location: B
(0.0000°N, 0.0000°E)
Time: 05:21:42
(UTC+02:00)

Amateur Radio Satellites - All Passes

Search period start: 04 July 2015 04:51
Search period end: 05 July 2015 04:51
Location: B, 0.0000°N, 0.0000°E

Satellite Date Start Highest point End Downlink Frequencies (MHz)
Time Altitude Azimuth
Cosmos 2491 04 Jul 05:03:16 05:11:43 55° 266° (W) 05:20:08 435.465 / 435.565
JUGNU 04 Jul 05:06:36 05:10:26 17° 194° (SSW) 05:14:11 437.505
KKS-1 04 Jul 05:07:14 05:11:23 36° 259° (W) 05:15:26 437.445
YUBILEINY 04 Jul 05:10:10 05:18:37 53° 274° (W) 05:26:57 435.215
Gurwin Techsat 1B 04 Jul 05:13:48 05:17:00 15° 281° (W) 05:19:53 435.225
MOZHAYETS 4 04 Jul 05:19:56 05:22:31 16° 80° (E) 05:25:21
ITAMSAT 1 04 Jul 05:26:22 05:27:59 11° 281° (W) 05:29:08 435.822/435.867
SO-50 04 Jul 05:47:24 05:50:59 20° 247° (WSW) 05:54:21 436.795
SRMSAT 04 Jul 05:55:15 06:00:11 26° 197° (SSW) 06:05:05 437.500
Cosmos 2504 04 Jul 05:57:59 06:03:01 21° 97° (E) 06:08:14 435.465 / 435.565
STARS 04 Jul 06:03:40 06:05:31 12° 260° (W) 06:07:03 437.465
AO-7 04 Jul 06:16:08 06:24:12 53° 285° (WNW) 06:32:12 29.400- 29.500
JAS-2 04 Jul 06:16:48 06:22:50 26° 280° (W) 06:28:50 435.910
VERMONT LUNAR 04 Jul 06:21:32 06:23:51 19° 318° (NW) 06:26:05 437.305
HORYU 2 04 Jul 06:21:54 06:25:01 18° 280° (W) 06:27:58 437.375
PHONESAT 2.4 04 Jul 06:27:11 06:30:03 25° 138° (SE) 06:32:58 2401.200-2431.200
Cubesat XI-IV 04 Jul 06:50:10 06:51:33 11° 101° (E) 06:53:24 437.490
MOZHAYETS 4 04 Jul 06:55:56 06:59:38 24° 259° (W) 07:03:12
BEESAT 3 04 Jul 06:59:18 07:03:03 41° 112° (ESE) 07:06:53 437.485
JUGNU 04 Jul 07:00:04 07:00:22 10° 184° (S) 07:00:39 437.505
BEESAT 2 04 Jul 07:10:23 07:14:12 43° 112° (ESE) 07:18:05 435.950
CUBESAT XI-V 04 Jul 07:20:06 07:24:04 28° 79° (E) 07:28:07 437.345
ISS 04 Jul 07:27:15 07:30:17 37° 306° (NW) 07:33:19 145.825
CUSAT 1 04 Jul 07:28:36 07:31:35 13° 102° (ESE) 07:35:09 437.405
SRMSAT 04 Jul 07:47:21 07:50:04 13° 189° (S) 07:52:43 437.500
Cosmos 2504 04 Jul 07:48:30 07:55:11 36° 274° (W) 08:01:22 435.465 / 435.565
CUTE-I 04 Jul 07:52:19 07:57:37 72° 102° (ESE) 08:02:56 437.470
PRISM 04 Jul 07:53:43 07:56:10 16° 80° (E) 07:58:50 437.425
O/OREOS (USA 219) 04 Jul 07:53:46 07:58:17 78° 105° (ESE) 08:02:43 437.305
STRAND 1 04 Jul 07:57:50 08:01:48 24° 79° (E) 08:05:56 437.568
PHONESAT 2.4 04 Jul 08:05:38 08:08:00 17° 319° (NW) 08:10:17 2401.200-2431.200
DANDE 04 Jul 08:23:17 08:30:49 37° 98° (E) 08:37:46 436.750
AIST 2 04 Jul 08:23:56 08:28:07 79° 113° (ESE) 08:32:20 435.215
Cubesat XI-IV 04 Jul 08:26:30 08:31:35 44° 282° (WNW) 08:36:38 437.490
JUGNU 04 Jul 08:49:23 08:50:32 11° 174° (S) 08:51:45 437.505
CUBESAT XI-V 04 Jul 08:58:52 09:01:23 14° 260° (W) 09:03:37 437.345
CUSAT 1 04 Jul 09:06:36 09:14:43 70° 274° (W) 09:21:33 437.405
GOMX 1 04 Jul 09:09:28 09:12:07 17° 101° (E) 09:15:03 467.674
HO-68 04 Jul 09:17:32 09:22:38 22° 103° (ESE) 09:28:06 435.675
PRISM 04 Jul 09:28:31 09:31:30 19° 260° (W) 09:34:20 437.425
BRITE-PL 04 Jul 09:29:28 09:33:35 70° 102° (ESE) 09:37:47 437.365/2234.400
STRAND 1 04 Jul 09:37:03 09:40:53 21° 259° (W) 09:44:32 437.568
GONETS M04 04 Jul 09:45:59 09:54:25 50° 94° (E) 10:02:51
SEEDS 04 Jul 09:52:12 09:55:39 25° 101° (E) 09:59:14 437.485
DOVE 4 04 Jul 09:55:18 09:59:17 42° 101° (ESE) 10:03:30 437.250
AUBIESAT-1 04 Jul 10:03:07 10:06:17 37° 76° (ENE) 10:09:23 437.475
AAUSAT CUBESAT 2 04 Jul 10:05:01 10:08:17 23° 100° (E) 10:11:41 437.432
DANDE 04 Jul 10:06:32 10:13:51 31° 274° (W) 10:20:12 436.750
Oscar 11 04 Jul 10:18:39 10:20:24 13° 100° (E) 10:22:28 145.826/435.025
COMPASS 1 04 Jul 10:29:41 10:33:53 68° 101° (E) 10:38:07 437.405
JUGNU 04 Jul 10:36:20 10:40:25 19° 165° (SSE) 10:44:37 437.505
M-CUBED/EXP-1 PRIME 04 Jul 10:36:51 10:40:03 36° 255° (WSW) 10:43:06 437.505
CUTE 1.7 + AOD 2 04 Jul 10:37:54 10:42:03 49° 281° (W) 10:46:14 437.475
CANX-2 04 Jul 10:41:19 10:45:20 38° 281° (W) 10:49:20 2200.000
FUNcube-1 04 Jul 10:44:09 10:46:29 15° 101° (E) 10:49:07 145.935
CINEMA 3 04 Jul 10:45:05 10:49:23 82° 100° (E) 10:53:56 145.822/145.860
GOMX 1 04 Jul 10:47:20 10:50:11 17° 279° (W) 10:52:55 467.674
UWE-3 04 Jul 10:53:40 10:57:27 30° 101° (ESE) 11:01:25 435.000/436.395/437.385
HO-68 04 Jul 11:03:37 11:10:15 40° 283° (WNW) 11:16:48 435.675
SRMSAT 04 Jul 11:27:39 11:30:39 14° 169° (S) 11:33:43 437.500
DX 1 04 Jul 11:29:02 11:31:46 17° 101° (E) 11:34:42 434.975-435.025
SEEDS 04 Jul 11:29:18 11:31:20 13° 280° (W) 11:33:05 437.485
CUBEBUG 2 04 Jul 11:37:24 11:41:35 45° 280° (W) 11:45:54 437.445
UNISAT 6 04 Jul 11:38:29 11:42:06 25° 80° (E) 11:45:44 437.425
AAUSAT CUBESAT 2 04 Jul 11:41:33 11:43:47 14° 279° (W) 11:45:45 437.432
ZACube-1 04 Jul 11:41:55 11:46:14 75° 281° (W) 11:50:42 437.345
GONETS M04 04 Jul 11:44:55 11:51:11 20° 276° (W) 11:56:50
UKube-1 04 Jul 11:49:47 11:53:32 30° 101° (E) 11:57:22 .
Oscar 11 04 Jul 11:52:47 11:56:29 26° 280° (W) 12:00:05 145.826/435.025
QB50P2 04 Jul 11:52:53 11:54:35 13° 80° (E) 11:56:33 145.880/145.840
POPSAT HIP 1 04 Jul 11:53:49 11:55:26 12° 80° (E) 11:57:21 437.405
DELFI C3 04 Jul 11:59:12 12:02:48 30° 281° (W) 12:06:22 145.870
AISAT 04 Jul 12:03:37 12:07:11 25° 101° (E) 12:10:52 437.250
HUMSAT D 04 Jul 12:05:11 12:09:23 79° 100° (E) 12:13:42 437.325/437.525
50 SAT 04 Jul 12:07:36 12:11:07 32° 101° (E) 12:14:43 437.505
Cosmos 2499 04 Jul 12:15:26 12:22:51 70° 274° (W) 12:29:52 435.465 / 435.565
FUNcube-1 04 Jul 12:19:10 12:22:40 23° 280° (W) 12:26:08 145.935
RS-15 04 Jul 12:20:29 12:21:20 10° 61° (ENE) 12:24:04 29.354- 29.394
ANTELSAT 04 Jul 12:22:11 12:26:37 72° 258° (WSW) 12:30:56 437.575/2403.000
CUBEBUG 1 04 Jul 12:23:30 12:26:38 21° 100° (E) 12:29:57 437.445
JUGNU 04 Jul 12:24:09 12:29:49 46° 160° (SSE) 12:35:32 437.505
QB50P1 04 Jul 12:30:31 12:34:36 45° 79° (E) 12:38:41 145.935-145.965
UWE-3 04 Jul 12:32:20 12:33:56 11° 279° (W) 12:35:11 435.000/436.395/437.385
ESTCUBE 1 04 Jul 12:33:24 12:37:32 37° 101° (E) 12:41:42 437.505/2401.250
TIGRISAT 04 Jul 12:34:53 12:39:11 49° 258° (WSW) 12:43:22 435.000
NANOSAT C BR1 04 Jul 12:44:44 12:49:01 74° 79° (E) 12:53:15 145.865
DUCHIFAT 1 04 Jul 12:51:50 12:56:07 89° 256° (WSW) 13:00:22 145.980
VELOX 1 04 Jul 12:52:18 12:56:39 65° 281° (WNW) 13:01:00 145.980
POLYITAN 1 04 Jul 12:56:18 13:00:36 72° 259° (WSW) 13:04:50 437.675
DX 1 04 Jul 13:04:43 13:07:54 19° 281° (W) 13:10:55 434.975-435.025
BUGSAT 1 04 Jul 13:10:49 13:15:06 80° 259° (W) 13:19:20 437.445
SRMSAT 04 Jul 13:15:21 13:20:29 29° 162° (SSE) 13:25:40 437.500
UNISAT 6 04 Jul 13:16:30 13:18:45 13° 259° (W) 13:20:41 437.425
SPROUT 04 Jul 13:26:37 13:30:25 32° 101° (E) 13:34:17 437.525
QB50P2 04 Jul 13:26:46 13:30:22 25° 259° (W) 13:33:50 145.880/145.840
POPSAT HIP 1 04 Jul 13:27:35 13:31:12 26° 259° (W) 13:34:42 437.405
UKube-1 04 Jul 13:28:38 13:29:35 10° 280° (W) 13:30:10 .
AISAT 04 Jul 13:41:24 13:43:39 13° 280° (W) 13:45:38 437.250
CUBEBUG 1 04 Jul 14:00:10 14:02:53 16° 280° (W) 14:05:23 437.445
TISAT 1 04 Jul 14:09:34 14:13:44 85° 101° (E) 14:17:56 437.305
JUGNU 04 Jul 14:12:59 14:18:54 64° 339° (NNW) 14:24:51 437.505
RS-15 04 Jul 14:22:32 14:34:42 81° 69° (ENE) 14:47:01 29.354- 29.394
BEESAT 04 Jul 14:25:45 14:27:37 13° 100° (E) 14:29:51 436.000
Oscar 19 04 Jul 14:29:21 14:33:39 28° 79° (E) 14:38:03 437.125/150
SWISSCUBE 04 Jul 14:39:35 14:43:13 23° 101° (E) 14:47:01 437.505
ITUPSAT 1 04 Jul 14:44:40 14:48:20 23° 101° (E) 14:52:11 437.325
SRMSAT 04 Jul 15:03:50 15:09:51 77° 159° (SSE) 15:15:52 437.500
PCSat 04 Jul 15:24:40 15:29:41 40° 110° (ESE) 15:34:44 145.827
Cosmos 2491 04 Jul 15:41:05 15:48:56 38° 95° (E) 15:56:58 435.465 / 435.565
KKS-1 04 Jul 15:45:09 15:47:28 15° 101° (E) 15:50:02 437.445
YUBILEINY 04 Jul 15:47:34 15:55:24 39° 85° (E) 16:03:29 435.215
BEESAT 04 Jul 16:01:04 16:05:21 32° 281° (WNW) 16:09:35 436.000
JUGNU 04 Jul 16:03:19 16:08:11 25° 343° (NNW) 16:13:00 437.505
JAS-2 04 Jul 16:08:42 16:11:13 14° 81° (E) 16:14:03 435.910
Oscar 19 04 Jul 16:09:22 16:12:53 18° 259° (W) 16:16:08 437.125/150
Gurwin Techsat 1B 04 Jul 16:10:24 16:15:44 84° 258° (WSW) 16:21:03 435.225
VERMONT LUNAR 04 Jul 16:15:48 16:17:10 12° 41° (NE) 16:18:41 437.305
SWISSCUBE 04 Jul 16:17:35 16:20:57 19° 281° (W) 16:24:08 437.505
ITAMSAT 1 04 Jul 16:18:26 16:23:37 70° 257° (WSW) 16:28:48 435.822/435.867
SO-50 04 Jul 16:19:06 16:23:09 35° 112° (ESE) 16:27:22 436.795
ITUPSAT 1 04 Jul 16:22:45 16:26:07 18° 281° (W) 16:29:16 437.325
AIST 1 04 Jul 16:27:17 16:31:31 52° 94° (E) 16:35:48
STARS 04 Jul 16:36:14 16:40:20 41° 102° (ESE) 16:44:30 437.465
RS-15 04 Jul 16:40:14 16:47:42 16° 243° (WSW) 16:53:53 29.354- 29.394
AO-7 04 Jul 16:50:50 16:57:58 34° 75° (ENE) 17:05:20 29.400- 29.500
SRMSAT 04 Jul 16:53:32 16:59:08 39° 340° (NNW) 17:04:41 437.500
HORYU 2 04 Jul 16:57:36 17:01:25 29° 79° (E) 17:05:18 437.375
PCSat 04 Jul 17:10:28 17:13:03 13° 292° (WNW) 17:15:14 145.827
KKS-1 04 Jul 17:20:22 17:23:59 24° 281° (W) 17:27:30 437.445
MOZHAYETS 4 04 Jul 17:35:35 17:39:25 27° 101° (E) 17:43:22
Cosmos 2491 04 Jul 17:38:21 17:45:41 28° 275° (W) 17:52:38 435.465 / 435.565
YUBILEINY 04 Jul 17:44:55 17:52:08 27° 265° (W) 17:59:00 435.215
VERMONT LUNAR 04 Jul 17:51:10 17:54:03 30° 222° (SW) 17:56:57 437.305
JAS-2 04 Jul 17:51:29 17:56:24 32° 257° (WSW) 18:00:57 435.910
JUGNU 04 Jul 17:55:23 17:57:57 13° 351° (N) 18:00:26 437.505
Cosmos 2504 04 Jul 17:59:24 18:05:52 28° 86° (E) 18:12:59 435.465 / 435.565
SO-50 04 Jul 18:02:25 18:03:39 11° 296° (WNW) 18:04:32 436.795
PHONESAT 2.4 04 Jul 18:05:25 18:08:05 21° 42° (NE) 18:10:50 2401.200-2431.200
HORYU 2 04 Jul 18:36:18 18:37:58 11° 260° (W) 18:39:17 437.375
AO-7 04 Jul 18:43:21 18:50:38 33° 255° (WSW) 18:57:41 29.400- 29.500
SRMSAT 04 Jul 18:44:56 18:48:47 17° 347° (NNW) 18:52:33 437.500
BEESAT 3 04 Jul 18:53:37 18:57:23 44° 68° (ENE) 19:01:09 437.485
CUTE-I 04 Jul 18:54:46 18:57:05 13° 79° (E) 18:59:47 437.470
ISS 04 Jul 19:00:18 19:03:30 68° 235° (SW) 19:06:43 145.825
BEESAT 2 04 Jul 19:05:31 19:09:20 48° 67° (ENE) 19:13:08 435.950
MOZHAYETS 4 04 Jul 19:13:54 19:16:32 14° 280° (W) 19:18:54
Cubesat XI-IV 04 Jul 19:26:32 19:31:19 35° 78° (ENE) 19:36:10 437.490
CUBESAT XI-V 04 Jul 19:38:08 19:42:36 50° 101° (E) 19:47:05 437.345
PHONESAT 2.4 04 Jul 19:43:15 19:46:03 22° 222° (SW) 19:48:49 2401.200-2431.200
Cosmos 2504 04 Jul 19:50:36 19:57:56 36° 265° (W) 20:05:26 435.465 / 435.565
PRISM 04 Jul 19:57:03 19:59:47 18° 100° (E) 20:02:43 437.425
O/OREOS (USA 219) 04 Jul 20:04:38 20:09:07 60° 255° (WSW) 20:13:38 437.305
CUSAT 1 04 Jul 20:10:50 20:12:07 12° 89° (E) 20:13:44 437.405
BRITE-PL 04 Jul 20:20:59 20:22:11 11° 81° (E) 20:23:55 437.365/2234.400
AIST 2 04 Jul 20:22:55 20:26:59 82° 249° (WSW) 20:31:02 435.215
STRAND 1 04 Jul 20:29:29 20:34:31 60° 102° (ESE) 20:39:33 437.568
CUTE-I 04 Jul 20:32:06 20:37:05 39° 258° (WSW) 20:42:00 437.470
SRMSAT 04 Jul 20:38:18 20:38:55 10° 356° (N) 20:39:30 437.500
Cubesat XI-IV 04 Jul 21:08:10 21:11:19 15° 259° (W) 21:14:08 437.490
HO-68 04 Jul 21:09:53 21:14:16 18° 77° (ENE) 21:19:06 435.675
DANDE 04 Jul 21:12:38 21:15:21 86° 268° (W) 21:18:38 436.750
GOMX 1 04 Jul 21:31:17 21:36:29 45° 80° (E) 21:41:31 467.674
PRISM 04 Jul 21:32:21 21:35:07 17° 281° (W) 21:37:41 437.425
JUGNU 04 Jul 21:35:06 21:38:11 14° 11° (N) 21:41:21 437.505
BRITE-PL 04 Jul 21:55:06 22:00:40 53° 259° (WSW) 22:06:05 437.365/2234.400
SEEDS 04 Jul 21:57:53 22:01:30 29° 80° (E) 22:05:10 437.485
AUBIESAT-1 04 Jul 22:02:32 22:07:00 49° 106° (ESE) 22:11:37 437.475
AAUSAT CUBESAT 2 04 Jul 22:09:17 22:12:40 25° 80° (E) 22:16:08 437.432
DOVE 4 04 Jul 22:15:37 22:20:53 89° 250° (WSW) 22:25:54 437.250
CUBEBUG 2 04 Jul 22:16:50 22:18:11 12° 82° (E) 22:19:51 437.445
GONETS M04 04 Jul 22:19:12 22:27:54 87° 265° (W) 22:36:39
Oscar 11 04 Jul 22:26:44 22:29:22 17° 80° (E) 22:32:12 145.826/435.025
SRMSAT 04 Jul 22:27:46 22:29:15 11° 6° (N) 22:30:49 437.500
Cosmos 2499 04 Jul 22:33:49 22:38:31 17° 85° (E) 22:44:04 435.465 / 435.565
COMPASS 1 04 Jul 22:34:38 22:38:47 81° 79° (E) 22:42:54 437.405
M-CUBED/EXP-1 PRIME 04 Jul 22:36:43 22:41:11 48° 285° (WNW) 22:45:49 437.505
CUTE 1.7 + AOD 2 04 Jul 22:44:54 22:48:50 38° 259° (W) 22:52:43 437.475
CANX-2 04 Jul 22:48:29 22:52:13 30° 259° (W) 22:55:50 2200.000
FUNcube-1 04 Jul 22:53:40 22:56:47 20° 80° (E) 22:59:57 145.935
HO-68 04 Jul 22:55:03 23:01:55 47° 256° (WSW) 23:08:40 435.675
CINEMA 3 04 Jul 23:01:55 23:06:42 57° 259° (W) 23:11:14 145.822/145.860
UWE-3 04 Jul 23:05:11 23:09:24 43° 80° (E) 23:13:31 435.000/436.395/437.385
GOMX 1 04 Jul 23:12:14 23:14:26 12° 259° (W) 23:16:10 467.674
TIGRISAT 04 Jul 23:14:22 23:15:31 11° 101° (E) 23:17:03 435.000
JUGNU 04 Jul 23:22:41 23:27:49 30° 18° (NNE) 23:32:59 437.505
DX 1 04 Jul 23:38:13 23:41:41 24° 79° (E) 23:45:15 434.975-435.025
AAUSAT CUBESAT 2 04 Jul 23:46:47 23:48:10 11° 260° (W) 23:49:14 437.432
CUBEBUG 2 04 Jul 23:50:50 23:54:49 30° 259° (WSW) 23:58:38 437.445
UNISAT 6 04 Jul 23:51:05 23:55:19 40° 102° (ESE) 23:59:42 437.425
ZACube-1 04 Jul 23:52:34 23:56:50 51° 259° (WSW) 00:00:59 437.345
UKube-1 04 Jul 23:58:28 00:02:34 41° 79° (ENE) 00:06:40 .
QB50P2 04 Jul 23:58:53 00:01:16 15° 100° (E) 00:03:54 145.880/145.840
POPSAT HIP 1 04 Jul 23:59:40 00:01:58 15° 100° (E) 00:04:32 437.405
DELFI C3 04 Jul 23:59:44 00:03:14 29° 259° (W) 00:06:41 145.870
Oscar 11 05 Jul 00:02:15 00:05:26 19° 260° (W) 00:08:27 145.826/435.025
50 SAT 05 Jul 00:04:52 00:08:11 28° 80° (E) 00:11:31 437.505
HUMSAT D 05 Jul 00:10:53 00:15:05 85° 259° (W) 00:19:12 437.325/437.525
SRMSAT 05 Jul 00:15:04 00:19:18 20° 15° (NNE) 00:23:35 437.500
AISAT 05 Jul 00:15:22 00:19:31 38° 79° (E) 00:23:42 437.250
Cosmos 2499 05 Jul 00:23:14 00:31:33 59° 266° (W) 00:40:13 435.465 / 435.565
FUNcube-1 05 Jul 00:30:08 00:32:58 16° 259° (W) 00:35:33 145.935
CUBEBUG 1 05 Jul 00:33:16 00:37:07 30° 79° (E) 00:41:00 437.445
ANTELSAT 05 Jul 00:35:27 00:39:48 47° 281° (W) 00:44:16 437.575/2403.000
QB50P1 05 Jul 00:36:55 00:41:02 56° 101° (ESE) 00:45:11 145.935-145.965
ESTCUBE 1 05 Jul 00:47:26 00:51:54 60° 78° (ENE) 00:56:21 437.505/2401.250
TIGRISAT 05 Jul 00:48:03 00:52:08 33° 280° (W) 00:56:15 435.000
NANOSAT C BR1 05 Jul 00:51:00 00:55:12 89° 281° (WNW) 00:59:26 145.865
DUCHIFAT 1 05 Jul 00:57:56 01:02:06 73° 281° (WNW) 01:06:18 145.980
POLYITAN 1 05 Jul 01:03:11 01:07:19 56° 281° (W) 01:11:29 437.675
VELOX 1 05 Jul 01:04:29 01:08:45 43° 259° (WSW) 01:12:59 145.980
JUGNU 05 Jul 01:11:03 01:16:59 82° 20° (NNE) 01:22:53 437.505
BUGSAT 1 05 Jul 01:14:33 01:18:32 70° 281° (WNW) 01:22:33 437.445
DX 1 05 Jul 01:15:17 01:17:49 14° 259° (W) 01:20:05 434.975-435.025
QB50P2 05 Jul 01:33:51 01:37:03 20° 280° (W) 01:40:07 145.880/145.840
POPSAT HIP 1 05 Jul 01:34:31 01:37:43 21° 280° (W) 01:40:49 437.405
SPROUT 05 Jul 01:34:35 01:38:42 43° 79° (E) 01:42:49 437.525
SRMSAT 05 Jul 02:03:06 02:08:48 49° 20° (NNE) 02:14:31 437.500
RS-15 05 Jul 02:06:07 02:17:00 68° 112° (ESE) 02:27:48 29.354- 29.394
CUBEBUG 1 05 Jul 02:11:36 02:13:21 12° 260° (W) 02:14:46 437.445
TISAT 1 05 Jul 02:15:27 02:19:44 79° 260° (W) 02:23:58 437.305
BEESAT 05 Jul 02:46:01 02:49:48 24° 79° (E) 02:53:42 436.000
JUGNU 05 Jul 03:00:42 03:06:05 36° 199° (SSW) 03:11:25 437.505
SWISSCUBE 05 Jul 03:00:57 03:05:27 43° 78° (ENE) 03:09:59 437.505
Oscar 19 05 Jul 03:02:11 03:07:17 73° 101° (E) 03:12:28 437.125/150
ITUPSAT 1 05 Jul 03:06:19 03:10:52 45° 78° (ENE) 03:15:25 437.325
Gurwin Techsat 1B 05 Jul 03:10:57 03:14:22 18° 101° (E) 03:18:02 435.225
ITAMSAT 1 05 Jul 03:15:48 03:19:18 19° 101° (E) 03:23:02 435.822/435.867
JAS-2 05 Jul 03:40:42 03:43:03 12° 102° (ESE) 03:46:14 435.910
SRMSAT 05 Jul 03:52:12 03:58:01 60° 201° (SSW) 04:03:52 437.500
KKS-1 05 Jul 03:56:54 04:00:18 22° 79° (E) 04:03:48 437.445
PCSat 05 Jul 04:00:33 04:05:54 64° 250° (WSW) 04:11:14 145.827
Cosmos 2491 05 Jul 04:14:04 04:22:42 73° 86° (E) 04:31:24 435.465 / 435.565
YUBILEINY 05 Jul 04:20:28 04:29:10 74° 94° (E) 04:37:50 435.215
RS-15 05 Jul 04:22:24 04:29:32 18° 296° (WNW) 04:35:43 29.354- 29.394
BEESAT 05 Jul 04:24:22 04:27:31 17° 259° (W) 04:30:26 436.000
SO-50 05 Jul 04:31:43 04:36:29 70° 68° (ENE) 04:41:06 436.795
AIST 1 05 Jul 04:34:04 04:38:21 77° 85° (E) 04:42:37
